This is the latest recevied weather packets stored in our database for station/object K5BOU. If no packets are shown the sender has not sent any weather packets the latest 10 day(s).
| Time | Temp. | Humidity | Pressure | Rain* | Wind** | Luminosity | Snow |
|---|---|---|---|---|---|---|---|
| 1777410376 | 31.67° C | 73% | 1009.5 hPa | 0 mm | - | 593 W/m² | - |
| 1777410074 | 31.67° C | 71% | 1009.6 hPa | 0 mm | - | 548 W/m² | - |
| 1777409769 | 31.67° C | 73% | 1009.6 hPa | 0 mm | - | 588 W/m² | - |
| 1777409465 | 31.67° C | 74% | 1009.7 hPa | 0 mm | - | 588 W/m² | - |
| 1777409161 | 31.67° C | 73% | 1009.7 hPa | 0 mm | - | 609 W/m² | - |
| 1777408857 | 31.67° C | 74% | 1010 hPa | 0 mm | - | 608 W/m² | - |
| 1777408554 | 31.67° C | 75% | 1009.8 hPa | 0 mm | - | 644 W/m² | - |
| 1777408254 | 31.11° C | 76% | 1009.8 hPa | 0 mm | - | 643 W/m² | - |
| 1777407949 | 31.11° C | 74% | 1010 hPa | 0 mm | - | 631 W/m² | - |
| 1777407647 | 31.67° C | 74% | 1010.3 hPa | 0 mm | - | 661 W/m² | - |
| 1777407346 | 31.67° C | 75% | 1010.2 hPa | 0 mm | - | 677 W/m² | - |
| 1777407041 | 31.11° C | 74% | 1010.4 hPa | 0 mm | - | 684 W/m² | - |
| 1777406737 | 31.11° C | 75% | 1010.4 hPa | 0 mm | - | 646 W/m² | - |
| 1777406432 | 31.11° C | 76% | 1010.4 hPa | 0 mm | - | 663 W/m² | - |
| 1777406132 | 31.11° C | 74% | 1010.5 hPa | 0 mm | - | 698 W/m² | - |
| 1777405828 | 31.11° C | 75% | 1010.4 hPa | 0 mm | - | 666 W/m² | - |
| 1777405524 | 31.11° C | 75% | 1010.3 hPa | 0 mm | - | 659 W/m² | - |
| 1777405222 | 31.11° C | 76% | 1010.4 hPa | 0 mm | - | 277 W/m² | - |
| 1777404920 | 32.22° C | 74% | 1010.6 hPa | 0 mm | - | 659 W/m² | - |
| 1777404616 | 31.67° C | 75% | 1010.6 hPa | 0 mm | - | 740 W/m² | - |
| 1777404313 | 31.67° C | 74% | 1010.5 hPa | 0 mm | - | 712 W/m² | - |
| 1777404010 | 31.67° C | 74% | 1010.4 hPa | 0 mm | - | 677 W/m² | - |
| 1777403704 | 31.67° C | 73% | 1010.4 hPa | 0 mm | - | 718 W/m² | - |
| 1777403403 | 31.67° C | 75% | 1010.6 hPa | 0 mm | - | 727 W/m² | - |
| 1777403097 | 31.67° C | 73% | 1010.6 hPa | 0 mm | - | 745 W/m² | - |
* Rain latest hour (hover to see other rain measurements)
** Current wind speed in m/s (hover to see current wind gust speed)